Location: A G Wilson House
(33.2015°N, 96.6269°W)
Time: 00:02:00
(UTC+00:00)

Daily predictions for brighter satellites

Satellite Brightness Start Highest point End
(mag) Time Altitude Azimuth Time Altitude Azimuth Time Altitude Azimuth
MOS 1 Rocket 3.8 00:01:49 10° SE 00:05:32 30° ENE 00:09:16 10° NNE
Cosmos 1025 Rocket 3.3 00:01:24 10° N 00:05:35 46° E 00:09:42 10° SSE
Cosmos 1606 2.8 00:03:44 10° SSW 00:06:23 50° W 00:09:02 10° N
IRS-P3 4.3 00:01:34 10° SSE 00:06:42 52° ENE 00:11:51 10° N
SJ-12 3.6 00:04:48 10° SSE 00:08:35 72° ENE 00:12:23 10° N
Cosmos 2016 Rocket 4.0 00:05:08 10° S 00:11:16 71° E 00:17:32 10° N
CORIOLIS 4.4 00:06:04 10° S 00:11:26 75° WSW 00:16:49 10° NNW
SAR-Lupe-4 3.9 00:08:20 10° S 00:11:54 68° W 00:15:28 10° NNW
USA 215 4.2 00:09:04 10° SSE 00:15:23 52° SW 00:21:45 10° NW
Cosmos 909 Rocket 4.2 00:09:17 10° NNW 00:15:24 52° ENE 00:21:57 10° SE
CZ-2D R/B 4.2 00:13:45 10° SE 00:17:12 29° ENE 00:20:45 10° NNE
Cosmos 1378 Rocket 4.4 00:14:05 10° NNW 00:18:17 53° W 00:22:29 10° S
SPOT 1/Viking Rocket 4.0 00:15:41 10° SE 00:20:21 37° ENE 00:25:03 10° N
Cosmos 1782 Rocket 3.8 00:16:19 10° SSE 00:20:31 46° E 00:24:46 10° NNE
Cosmos 1943 Rocket 3.9 00:18:32 10° ESE 00:20:25 12° E 00:20:25 12° E
ARIANE 5 R/B 2.7 00:17:27 10° S 00:22:25 73° WSW 00:27:24 10° NNW
Tiangong -0.1 00:20:35 10° NW 00:22:52 18° N 00:24:28 13° NE
Cosmos 2061 Rocket 4.0 00:24:31 10° S 00:30:48 66° E 00:37:03 10° NNE
Cosmos 1140 Rocket 3.8 00:27:03 10° S 00:31:54 41° ESE 00:36:45 10° NNE
SKYMED 2 3.6 00:30:20 10° N 00:34:41 86° WNW 00:39:01 10° SSW
Geosat 4.4 00:30:14 10° SE 00:34:50 39° ENE 00:39:26 10° N
COSMO-SKYMED 1 2.4 00:31:36 10° NNE 00:35:43 66° ESE 00:39:46 10° S
Cosmos 1300 Rocket 3.6 00:36:58 10° S 00:41:22 85° W 00:45:46 10° N
Cosmos 1833 Rocket 3.9 00:40:23 10° N 00:44:22 21° NE 00:44:22 21° NE
Delta 2 Rocket 3.2 00:43:14 10° W 00:47:12 64° N 00:48:35 36° ENE
Cosmos 1975 Rocket 3.5 00:45:10 10° NNE 00:49:07 34° E 00:53:05 10° SE
Cosmos 1441 Rocket 2.6 00:47:05 10° N 00:50:24 70° E 00:53:42 10° SSE
Cosmos 2221 Rocket 4.4 00:46:11 10° NNW 00:50:33 53° W 00:54:53 10° S
VEP-3 3.9 00:43:24 10° W 00:51:27 38° SSW 00:55:45 14° SE
SJ-6E 4.5 00:58:05 10° SSE 01:01:49 75° ENE 01:05:35 10° N
Spot 4 Rocket 3.9 00:57:16 10° SSE 01:02:21 87° ENE 01:07:29 10° NNW
Cosmos 2084 Rocket 3.2 00:58:52 10° SSW 01:03:01 88° ESE 01:04:21 43° NNE
TIMED 4.4 00:59:41 10° S 01:03:50 57° ESE 01:04:17 53° ENE
SJ-7 4.3 01:05:13 10° S 01:08:54 73° W 01:12:35 10° NNW
PSLV R/B 3.4 01:08:35 10° S 01:12:41 78° WSW 01:16:45 10° NNW
Cosmos 407 Rocket 3.5 01:08:21 10° S 01:13:26 51° ESE 01:13:35 51° E
Cosmos 1869 3.9 01:10:50 10° S 01:13:09 38° S 01:13:09 38° S
Cosmos 1464 Rocket 4.1 01:13:16 10° SSE 01:19:20 49° E 01:20:08 46° ENE
NOSS 3-4 (A) 3.9 01:13:04 10° NNW 01:20:21 80° ENE 01:28:23 12° SSE
NOSS 3-4 (C) 3.9 01:13:08 10° NNW 01:20:25 79° ENE 01:28:08 13° SSE
NOAA 6 3.9 01:16:48 10° SSE 01:21:57 83° ENE 01:27:07 10° N
Resurs 1-3 3.9 01:19:18 10° S 01:23:32 63° W 01:27:49 10° NNW
ATLAS CENTAUR R/B 3.9 01:24:46 10° WNW 01:25:53 11° NW 01:26:59 10° NNW
Cosmos 2278 Rocket 2.6 01:20:54 10° S 01:25:11 44° SE 01:25:11 44° SE
YAOGAN 1 3.8 01:31:55 10° SSW 01:35:54 39° W 01:39:54 10° NNW
USA 281 3.3 01:39:32 54° NE 01:39:32 54° NE 01:45:12 10° NNW
SL-12 R/B(2) 4.2 01:31:36 10° SSW 01:39:07 81° WNW 01:44:53 24° NNE
OAO 2 Rocket 4.0 01:36:37 10° SW 01:40:43 48° SSW 01:40:43 48° SSW
Cosmos 1072 Rocket 4.4 01:41:24 10° S 01:47:39 86° W 01:49:40 46° N
Cosmos 1943 Rocket 2.9 01:57:57 10° SSW 02:02:00 47° SW 02:02:00 47° SW
Cosmos 1833 Rocket 4.4 02:23:23 10° NW 02:26:07 27° NW 02:26:07 27° NW
COSMOS 2428 4.4 09:47:50 29° E 09:47:50 29° E 09:51:56 10° NE
Cosmos 2237 Rocket 4.4 10:18:21 10° SSE 10:22:42 23° E 10:27:03 10° NE
NOSS 3-1 (A) 3.8 10:29:28 41° ESE 10:29:44 41° ESE 10:34:22 10° NE
DELTA 2 R/B (1) 4.0 10:45:20 48° S 10:45:20 48° S 10:50:06 10° SE
Cosmos 1153 Rocket 4.3 10:43:16 10° N 10:49:29 85° W 10:55:45 10° S
Cosmos 2123 Rocket 4.5 10:46:10 10° S 10:52:15 60° E 10:58:21 10° NNE
Cosmos 1340 Rocket 3.2 11:00:18 49° SSE 11:00:18 49° SSE 11:03:05 10° S
Cosmos 1943 Rocket 4.2 10:55:26 10° N 10:59:55 25° ENE 11:04:21 10° ESE
PAYLOAD A 4.0 10:55:13 10° N 11:00:29 58° WNW 11:00:42 58° W
CZ-2C R/B 4.1 10:56:45 10° N 10:58:22 20° N 10:58:22 20° N
USA 234 3.7 10:57:05 10° ESE 11:03:28 57° NE 11:08:18 18° NNW
Meteor 2-14 Rocket 4.4 10:57:34 10° SSW 11:03:33 56° W 11:09:32 10° N
Meteor 2-21 Rocket 4.5 11:01:48 10° S 11:07:56 80° E 11:14:03 10° N
Cosmos 1066 4.5 11:06:59 10° SSW 11:12:24 75° W 11:17:55 10° N
SL-16 R/B 3.8 11:07:37 10° SSW 11:10:12 21° SW 11:10:12 21° SW
Iridium 4 Rocket 4.4 11:10:01 10° NNE 11:13:57 38° E 11:17:47 10° SSE
IRS-1D 3.3 11:21:15 10° NNE 11:26:13 86° WNW 11:31:08 10° SSW
UNK 4.3 11:23:32 10° SSW 11:27:36 34° W 11:27:44 34° W
USA 276 4.3 11:27:18 13° NNE 11:28:10 14° NNE 11:29:47 10° ENE
Cosmos 1328 4.3 11:29:36 33° NW 11:29:36 33° NW 11:32:00 10° N
COSMOS 2428 3.4 11:29:57 28° W 11:31:08 31° WNW 11:36:09 10° N
Cosmos 2100 Rocket 4.0 11:29:24 10° NNW 11:35:23 56° W 11:41:24 10° SSW
NOSS 0 Rocket 4.1 11:29:51 10° SW 11:35:44 48° WNW 11:41:40 10° N
Cosmos 1703 Rocket 3.8 11:37:15 10° SSW 11:41:20 42° W 11:45:29 10° N
Helios 1A Rocket 2.9 11:41:02 10° SSE 11:44:23 63° ENE 11:47:44 10° N
Cosmos 407 Rocket 4.2 11:39:34 10° N 11:44:33 54° ENE 11:49:32 10° SSE
Cosmos 1023 Rocket 4.4 11:39:42 10° NNW 11:44:42 63° WSW 11:49:40 10° S
Cosmos 921 Rocket 3.9 11:43:43 22° WNW 11:45:20 28° W 11:49:07 10° SSW
BlueWalker 3 3.3 11:42:58 12° NNW 11:45:57 30° NE 11:49:10 10° ESE
Cosmos 1980 3.8 11:44:41 10° SW 11:50:07 50° WNW 11:55:37 10° N
